EHI
0 0 0 0 0 0 0 0 0 0 1 5 9 9 8 6 4 4 5 7 7 6 5 2 1 0 0 1 1 1 2 2 1 0 0 0 0 0 0 0 0 0 0 0
0 0 0 0 0 0 0 0 0 0 1 4 6 6 4 2 2 1 2 4 5 5 3 1 0 0 0 0 0 1 2 2 1 0 0 0 0 0 0 0 0 0 0 0
0 0 0 0 0 0 0 0 0 0 1 1 2 1 0 0 0 0 0 1 2 2 2 1 0 0 0 0 0 0 1 1 1 0 0 0 0 0 0 0 0 0 0 0
0 0 0 0 0 0 0 0 0 0 0 0 0 0 0 0 0 0 0 0 0 0 0 0 0 0 0 0 0 0 0 0 0 0 0 0 0 0 0 0 0 0 0 0
0 0 0 0 0 0 0 0 0 0 0 0 0 0 0 0 0 0 0 0 0 0 0 0 0 0 0 0 0 0 0 0 0 0 0 0 0 0 0 0 0 0 0 0
0 0 0 0 0 0 0 0 0 0 0 0 0 0 0 0 0 0 0 0 0 0 0 0 0 0 0 0 0 0 0 0 0 0 0 0 0 0 0 0 0 0 0 0
0 0 0 0 0 0 0 0 0 0 0 0 0 0 0 0 0 0 0 0 0 0 0 0 0 0 0 0 0 0 0 0 0 0 0 0 0 0 0 0 0 0 0 0
0 0 0 0 0 0 0 0 0 0 0 0 0 0 0 0 0 0 0 0 0 0 0 0 0 0 0 0 0 0 0 0 0 0 0 0 0 0 0 0 0 0 0 0
0 0 0 0 0 0 0 0 0 0 0 0 0 0 0 0 0 0 0 0 0 0 0 0 0 0 0 0 0 0 0 0 0 0 0 0 0 0 0 0 0 0 0 0
0 0 0 0 0 0 0 0 0 0 0 0 0 0 0 0 0 0 0 0 0 0 0 0 0 0 0 0 0 0 0 0 0 0 0 0 0 0 0 0 0 0 0 0
0 0 0 0 0 0 0 0 0 0 0 0 0 0 0 0 0 0 0 0 0 0 0 0 0 0 0 0 0 0 0 0 0 0 0 0 0 0 0 0 0 0 0 0
0 0 0 0 0 0 0 0 0 0 0 0 0 0 0 0 0 0 0 0 0 0 0 0 0 0 0 0 0 0 0 0 0 0 0 0 0 0 0 0 0 0 0 0
0 0 0 0 0 0 0 0 0 0 0 0 0 0 0 0 0 0 0 0 0 0 0 0 0 0 0 0 0 0 0 0 0 0 0 0 0 0 0 0 0 0 0 0
0 0 0 0 0 0 0 0 0 0 0 0 0 0 0 0 0 0 0 0 0 0 0 0 0 0 0 0 0 0 0 0 0 0 0 0 0 0 0 0 0 0 0 0
0 0 0 0 0 0 0 0 0 0 0 0 0 0 0 0 0 0 0 0 0 0 0 0 0 0 0 0 0 0 0 0 0 0 0 0 0 0 0 0 0 0 0 0
0 0 0 0 0 0 0 0 0 0 0 0 0 0 0 0 0 0 0 0 0 0 0 0 0 0 0 0 0 0 0 0 0 0 0 0 0 0 0 0 0 0 0 0
0 0 0 0 0 0 0 0 0 0 0 0 0 0 0 0 0 0 0 0 0 0 0 0 0 0 0 0 0 0 0 0 0 0 0 0 0 0 0 0 0 0 0 0
0 0 0 0 0 0 0 0 0 0 0 0 0 0 0 0 0 0 0 0 0 0 0 0 0 0 0 0 0 0 0 0 0 0 0 0 0 0 0 0 0 0 0 0
0 0 0 0 0 0 0 0 0 0 0 0 0 0 0 0 0 0 0 0 0 0 0 0 0 0 0 0 0 0 0 0 0 0 0 0 0 0 0 0 0 0 0 0
0 0 0 0 0 0 0 0 0 0 0 0 0 0 0 0 0 0 0 0 0 0 0 0 0 0 0 0 0 0 0 0 0 0 0 0 0 0 0 0 0 0 0 0
0 0 0 0 0 0 0 0 0 0 0 0 0 0 0 0 0 0 0 0 0 0 0 0 0 0 0 0 0 0 0 0 0 0 0 0 0 0 0 0 0 0 0 0
0 0 0 0 0 0 0 0 0 0 0 0 0 0 0 0 0 0 0 0 0 0 0 0 0 0 0 0 0 0 0 0 0 0 0 0 0 0 0 0 0 0 0 0
0 0 0 0 0 0 0 0 0 0 0 0 0 0 0 0 0 0 0 0 0 0 0 0 0 0 0 0 0 0 0 0 0 0 0 0 0 0 0 0 0 0 0 0
0 0 0 0 0 0 0 0 0 0 0 0 0 0 0 0 0 0 0 0 0 0 0 0 0 0 0 0 0 0 0 0 0 0 0 0 0 0 0 0 0 0 0 0
0 0 0 0 0 0 0 0 0 0 0 0 0 0 0 0 0 0 0 0 0 0 0 0 0 0 0 0 0 0 0 0 0 0 0 0 0 0 0 0 0 0 0 0
0 0 0 0 0 0 0 0 0 0 0 0 0 0 0 0 0 0 0 0 0 0 0 0 0 0 0 0 0 0 0 0 0 0 0 0 0 0 0 0 0 0 0 0
Wind_Speed
2 2 4 7 7 6 3 2 2 1 1 5 6 5 2 3 3 2 2 1 2 2 1 1 1 2 2 2 2 2 3 2 2 1 1 1 1 0 0 0 0 0 1 1
2 4 8 5 3 3 2 2 1 1 4 5 4 3 1 2 1 1 2 1 1 1 0 1 1 2 2 2 2 2 2 2 2 1 1 1 1 1 1 1 1 1 1 2
5 6 3 1 1 2 2 3 4 4 4 5 2 2 2 2 1 1 1 1 2 3 3 3 2 3 2 3 3 3 2 1 1 1 1 2 2 1 1 1 2 2 2 2
4 5 2 2 3 3 2 2 4 5 4 2 2 0 3 2 3 3 2 2 3 4 4 4 3 3 4 4 3 2 2 1 1 1 1 1 1 1 2 2 2 3 3 3
4 2 1 2 2 3 2 4 6 5 5 3 4 2 5 2 3 4 4 4 4 4 4 4 4 4 4 3 3 2 2 1 1 1 0 0 1 2 2 2 3 3 3 3
4 2 1 1 2 4 6 6 6 5 5 3 2 1 4 3 4 4 3 4 4 4 4 3 3 2 2 2 2 2 1 1 1 1 0 0 2 3 3 3 3 3 3 3
4 4 1 2 3 3 5 6 4 5 5 2 1 1 7 5 5 5 5 5 3 3 3 3 3 3 2 2 1 1 1 1 2 2 1 1 2 2 3 4 3 4 3 3
0 5 2 1 3 4 2 5 6 3 2 3 2 3 7 5 4 4 4 3 2 2 2 3 3 3 2 2 1 1 1 1 2 2 2 2 2 2 3 4 4 4 4 4
4 5 2 0 1 6 5 3 4 7 2 1 4 6 8 2 2 2 3 2 3 2 2 2 1 1 1 1 1 1 0 1 2 2 3 3 3 3 3 4 4 4 4 5
6 3 3 1 4 5 4 7 5 5 4 1 4 4 5 5 5 4 3 3 3 2 2 2 1 1 1 1 1 1 0 1 2 3 3 3 3 4 4 4 5 5 5 5
3 3 3 3 1 1 3 4 6 5 4 5 2 7 7 7 6 6 6 4 4 3 3 2 1 1 1 1 1 1 2 2 3 3 3 4 4 4 4 4 5 5 5 6
3 5 0 3 2 1 2 4 6 5 3 4 3 9 5 6 5 5 5 3 3 4 3 2 1 1 1 1 2 2 3 3 3 3 3 4 5 5 5 5 6 5 6 6
6 6 3 7 7 2 0 3 4 5 5 4 4 8 3 1 2 3 4 4 3 3 3 2 1 1 1 2 3 3 3 4 4 3 4 5 5 5 5 6 6 6 6 7
7 5 6 6 7 3 3 3 5 5 5 5 7 8 5 4 4 4 3 4 4 3 3 2 2 2 3 3 3 4 4 4 4 4 4 5 6 6 6 7 7 7 7 7
5 3 4 5 5 3 4 5 6 6 8 8 8 8 9 8 7 5 4 4 4 4 4 4 3 3 3 4 4 4 4 4 4 4 5 6 6 6 6 7 7 7 7 8
4 4 2 3 2 2 4 5 4 5 5 5 3 7 6 2 3 4 5 6 6 6 6 5 5 4 4 4 4 4 5 5 4 5 6 6 6 7 7 7 8 8 8 8
3 6 4 3 4 2 5 5 5 4 4 7 7 8 3 4 6 7 7 7 7 7 6 6 5 5 5 5 4 5 5 4 4 5 6 7 7 7 8 8 8 8 8 8
7 6 4 2 2 3 8 3 4 3 4 5 5 4 5 6 4 3 6 8 8 7 6 6 5 5 4 4 4 4 4 4 5 6 7 7 7 8 8 8 8 8 7 7
5 8 5 4 2 5 7 3 5 4 4 5 6 4 3 4 3 3 6 7 8 7 6 6 5 4 4 5 4 4 4 5 5 7 7 7 7 8 8 9 9 8 7 8
4 4 6 4 3 5 9 3 4 4 5 6 7 7 6 7 2 7 6 7 7 6 5 5 4 3 4 5 3 3 5 5 7 7 7 7 7 7 8 9 8 7 7 8
2 3 3 4 4 9 7 3 6 3 10 6 9 9 10 10 9 5 4 6 7 6 6 5 4 4 5 4 3 4 5 7 7 7 7 7 7 7 8 7 6 7 7 8
4 4 4 4 3 9 4 7 9 11 4 5 9 9 11 10 5 3 5 7 7 6 5 5 5 5 5 4 4 5 7 7 6 6 7 7 7 7 6 7 7 7 6 7
5 7 6 8 8 6 4 8 6 4 5 6 9 9 11 8 7 7 7 7 7 7 7 5 5 6 5 4 5 6 7 5 5 6 6 7 8 7 6 6 7 7 6 5
3 2 3 4 8 6 6 6 5 7 7 7 8 9 11 10 9 9 7 7 7 7 6 5 5 5 6 5 5 7 6 5 5 6 7 6 7 8 7 5 5 5 6 6
4 1 1 5 8 8 7 5 5 5 4 4 5 8 11 11 10 10 9 9 8 7 5 5 6 6 7 5 5 6 5 4 4 6 6 6 6 6 7 7 6 6 6 6
2 3 3 6 7 4 8 6 2 4 6 7 7 7 7 10 11 10 9 8 7 7 5 5 6 7 7 5 6 5 4 4 4 5 6 5 5 5 6 7 8 8 9 10
Wind_Direction
112 92 228 231 211 215 220 230 266 299 50 70 85 95 62 18 40 32 34 84 97 102 142 140 143 126 113 109 117 128 127 126 122 111 114 118 122 277 300 263 248 309 293 284
40 261 242 238 215 201 199 201 190 76 67 87 89 65 12 9 1 310 274 245 163 169 156 184 184 178 169 170 178 175 167 164 164 144 153 161 155 212 245 296 312 291 284 272
209 247 262 208 232 188 210 196 194 159 95 65 100 17 311 299 297 272 239 222 242 219 202 224 220 215 204 213 214 205 203 193 186 122 89 65 42 12 348 317 306 300 299 292
236 259 266 255 243 182 245 234 146 126 103 42 40 328 294 296 310 291 278 259 244 249 230 229 228 227 225 228 221 214 209 212 220 159 151 161 174 240 256 268 283 299 301 296
259 240 233 251 262 163 152 78 89 97 106 70 25 63 297 335 299 276 261 244 244 245 234 235 238 231 226 216 203 201 195 214 227 186 177 192 257 258 287 297 302 304 304 299
253 264 221 218 25 96 116 73 60 55 70 50 346 49 286 253 234 258 262 251 245 248 244 240 249 240 233 206 178 167 169 263 315 330 343 276 279 290 303 306 306 305 304 301
331 323 300 119 88 44 74 81 34 8 18 283 281 260 256 248 227 226 247 262 265 256 233 225 226 220 214 192 176 147 148 296 340 345 329 299 274 272 271 279 282 289 294 292
323 302 282 188 166 165 150 133 152 188 223 286 321 261 260 253 245 235 238 245 251 248 228 221 216 201 197 182 152 130 133 304 333 329 312 301 285 272 271 272 271 272 270 275
182 258 298 57 123 133 137 133 144 121 106 3 300 297 303 271 269 238 237 234 227 218 200 188 168 157 153 131 117 137 145 313 321 316 311 305 301 288 280 282 276 273 273 279
162 225 300 334 74 49 112 137 101 104 127 287 308 291 257 260 248 237 234 234 224 175 150 147 137 111 84 72 46 39 40 293 297 304 299 301 297 292 288 290 289 286 285 284
135 153 315 10 82 169 104 91 98 102 141 148 241 269 229 222 222 216 224 219 203 191 177 160 116 69 58 33 17 357 337 315 308 307 303 304 299 299 299 291 287 288 288 290
126 118 287 287 296 158 158 158 146 143 189 166 177 265 263 229 226 211 215 205 180 169 159 144 125 75 22 344 331 322 311 301 294 294 296 296 296 299 297 292 290 289 288 287
135 105 54 351 343 349 129 147 138 123 115 149 173 263 296 229 200 202 195 181 158 155 154 146 155 247 274 288 297 297 293 288 290 293 296 297 297 295 289 287 289 289 287 287
114 110 153 194 227 235 258 183 155 135 147 193 219 246 277 233 213 205 179 163 156 169 182 198 230 253 266 276 282 284 287 287 293 296 296 294 290 288 286 287 289 289 287 286
111 159 213 234 246 225 238 234 186 190 191 188 226 226 243 226 214 203 173 162 168 193 214 221 230 248 264 274 280 280 284 292 297 300 297 290 289 290 290 289 290 290 288 287
115 162 182 287 287 256 253 250 216 206 194 211 240 255 249 194 144 161 173 177 196 216 226 234 240 248 254 261 271 282 283 289 295 293 290 290 294 296 294 292 291 292 291 289
144 142 139 259 306 7 278 246 208 207 200 180 208 237 180 169 190 196 194 194 207 220 228 234 239 241 248 255 260 267 274 288 292 288 290 292 293 294 293 295 296 294 292 289
145 133 139 158 55 247 250 260 200 194 227 209 226 232 194 198 198 203 191 193 212 221 227 233 235 240 248 250 257 264 276 284 287 288 290 292 293 294 296 296 294 292 289 288
141 135 125 129 180 278 289 234 166 164 260 215 206 202 151 107 69 303 220 201 208 213 216 221 223 225 239 254 258 267 281 286 288 288 290 292 294 296 299 298 296 295 293 294
76 101 115 132 164 235 252 235 156 108 282 229 184 179 157 125 144 255 222 197 210 215 213 217 220 223 244 255 250 257 275 284 283 283 288 292 293 292 293 293 292 291 290 289
52 70 127 156 202 257 252 163 128 165 244 211 182 179 167 180 200 223 188 187 198 206 213 211 210 226 242 250 236 254 271 273 274 284 291 294 293 291 287 287 286 292 294 295
190 167 176 146 182 258 221 146 182 214 221 179 184 183 185 205 213 209 194 196 198 206 214 207 213 238 249 241 226 253 265 268 281 289 293 295 296 296 297 294 295 294 295 298
199 194 187 188 214 238 214 212 229 188 195 196 189 193 188 195 209 207 205 205 207 210 214 210 213 239 255 241 220 244 260 274 287 293 294 297 301 299 294 291 296 301 300 297
273 156 164 256 272 267 255 246 238 209 212 208 190 181 176 192 203 204 205 206 211 216 216 210 211 233 251 248 235 239 260 273 280 289 294 298 303 306 306 299 292 292 296 297
256 188 231 274 284 310 306 264 240 223 213 199 189 185 187 191 200 200 202 206 210 214 213 205 212 229 245 252 253 254 256 262 277 286 291 297 298 300 305 304 293 286 276 265
249 200 203 243 250 232 268 282 260 217 218 202 188 196 199 195 201 198 203 206 204 208 205 210 220 231 243 248 255 259 252 248 267 286 294 296 301 303 305 309 311 291 274 280